Weather History for Punta Gorda, FL

Change the Weather History Date:

Tuesday, November 6, 2012

  Actual Average Record
Temperature  
Mean Temperature 68 °F -  
Max Temperature 75 °F 79 °F 90 °F (1996)
Min Temperature 62 °F 58 °F 48 °F (2010)
Cooling Degree Days 4    
Growing Degree Days 18 (Base 50)    
Moisture  
Dew Point 62 °F    
Average Humidity 81    
Maximum Humidity 94    
Minimum Humidity 62    
Precipitation  
Precipitation 0.01 in - - ()
Sea Level Pressure  
Sea Level Pressure 29.92 in    
Wind  
Wind Speed 3 mph (WSW)    
Max Wind Speed 12 mph    
Max Gust Speed -    
Visibility 10 miles    
Events      
Averages and records for this station are not official NWS values.
T = Trace of Precipitation, MM = Missing Value Source: NWS Daily Summary

Daily Weather History Graph

Daily Weather History Graph

Search for Another Location

Airport:

Trip Planner

Search our weather history database for the weather conditions in past years. The results will help you decide how hot, cold, wet, or windy it might be!

Date:

Astronomy

Nov. 06, 2012 Rise Set
Actual Time 6:41 AM EST 5:41 PM EST
Civil Twilight 6:17 AM EST 6:05 PM EST
Nautical Twilight 5:49 AM EST 6:33 PM EST
Astronomical Twilight 5:22 AM EST 7:00 PM EST
Moon No Moon Rise 12:37 PM EST (11/6)
Length of Visible Light 11h 48m
Length of Day
10h 59m
Waning Gibbous, 53% of the Moon is Illuminated
Nov 6
Waning Gibbous
Nov 6
Last Quarter
Nov 13
New
Nov 20
First Quarter
Nov 28
Full

Hourly Weather History & Observations

Time (EST) Temp. Dew Point Humidity Pressure Visibility Wind Dir Wind Speed Gust Speed Precip Events Conditions
12:53 AM 66.0 °F 62.1 °F 87% 29.96 in 10.0 mi Calm Calm - N/A   Mostly Cloudy
1:53 AM 63.0 °F 61.0 °F 93% 29.95 in 9.0 mi NE 4.6 mph - N/A   Clear
2:53 AM 64.0 °F 60.1 °F 87% 29.94 in 10.0 mi Calm Calm - N/A   Clear
3:53 AM 64.9 °F 61.0 °F 87% 29.92 in 10.0 mi Calm Calm - N/A   Overcast
4:53 AM 66.0 °F 61.0 °F 84% 29.94 in 10.0 mi Calm Calm - N/A   Overcast
5:53 AM 64.0 °F 61.0 °F 90% 29.95 in 10.0 mi Calm Calm - N/A   Mostly Cloudy
6:32 AM 62.6 °F 60.8 °F 94% 29.94 in 8.0 mi South 3.5 mph - N/A   Partly Cloudy
6:53 AM 62.1 °F 59.0 °F 90% 29.95 in 9.0 mi South 3.5 mph - N/A   Scattered Clouds
7:53 AM 68.0 °F 64.0 °F 87% 29.96 in 10.0 mi Calm Calm - N/A   Scattered Clouds
8:53 AM 73.0 °F 61.0 °F 66% 29.96 in 10.0 mi Calm Calm - N/A   Partly Cloudy
9:53 AM 72.0 °F 60.1 °F 66% 29.97 in 10.0 mi South 6.9 mph - N/A   Overcast
10:53 AM 75.9 °F 62.1 °F 62% 29.94 in 10.0 mi SSW 9.2 mph - N/A   Scattered Clouds
11:53 AM 72.0 °F 66.0 °F 81% 29.94 in 10.0 mi SW 11.5 mph - 0.01 in   Overcast
12:53 PM 72.0 °F 64.0 °F 76% 29.91 in 10.0 mi SW 8.1 mph - N/A   Mostly Cloudy
1:53 PM 73.0 °F 64.0 °F 73% 29.89 in 10.0 mi SW 11.5 mph - N/A   Mostly Cloudy
2:53 PM 73.0 °F 64.0 °F 73% 29.88 in 10.0 mi SW 9.2 mph - N/A   Overcast
3:53 PM 75.9 °F 64.0 °F 67% 29.87 in 10.0 mi WSW 10.4 mph - N/A   Mostly Cloudy
4:53 PM 73.0 °F 64.9 °F 76% 29.87 in 10.0 mi SW 5.8 mph - N/A   Overcast
5:53 PM 71.1 °F 64.9 °F 81% 29.88 in 10.0 mi WSW 5.8 mph - N/A   Clear
6:53 PM 70.0 °F 64.9 °F 84% 29.89 in 10.0 mi SW 3.5 mph - N/A   Clear
7:53 PM 66.9 °F 64.0 °F 90% 29.91 in 10.0 mi Calm Calm - N/A   Clear
8:53 PM 66.0 °F 62.1 °F 87% 29.93 in 10.0 mi NW 4.6 mph - N/A   Partly Cloudy
9:53 PM 66.0 °F 63.0 °F 90% 29.92 in 10.0 mi NW 4.6 mph - N/A   Clear
10:53 PM 66.0 °F 61.0 °F 84% 29.93 in 10.0 mi NNW 5.8 mph - N/A   Clear
11:53 PM 64.0 °F 57.9 °F 80% 29.92 in 10.0 mi NW 4.6 mph - N/A   Clear